When you browse on this site, cookies collect data to enhance your experience and personalize the content and advertising you see.
Visit our Privacy Policy to learn more. By continuing to use the site, you agree to this use of cookies and data.
  • In United Kingdom
  • List of Countries
  • For 7 days
  • Water Temperature
  • Weather Map
  • Weather Widgets
  • user-avatar
    Login

    Hourly Weather Kiiminki

    Today, 20 September, Friday

    Time Temperature Precipitation Wind Pressure Humidity
    00:00 +2°C° 0 mm 2 mps 755 mmHg 80%
    01:00 +2°C° 0 mm 2 mps 755 mmHg 80%
    02:00 +1°C° 0 mm 2 mps 755 mmHg 81%
    03:00 +1°C° 0 mm 2 mps 755 mmHg 82%
    04:00 +1°C° 0 mm 2 mps 754 mmHg 83%
    05:00 -1°C° 0 mm 2 mps 754 mmHg 84%
    06:00 +1°C° 0 mm 2 mps 754 mmHg 81%
    07:00 +2°C° 0 mm 2 mps 754 mmHg 78%
    08:00 +3°C° 0 mm 2 mps 754 mmHg 75%
    09:00 +5°C° 0 mm 2 mps 754 mmHg 69%
    10:00 +6°C° 0 mm 2 mps 754 mmHg 64%
    11:00 +7°C° 0 mm 2 mps 754 mmHg 59%
    12:00 +8°C° 0 mm 3 mps 754 mmHg 57%
    13:00 +8°C° 0 mm 3 mps 754 mmHg 55%
    14:00 +9°C° 0 mm 3 mps 754 mmHg 53%
    15:00 +8°C° 0 mm 3 mps 754 mmHg 57%
    16:00 +7°C° 0 mm 3 mps 753 mmHg 61%
    17:00 +7°C° 0 mm 2 mps 753 mmHg 64%
    18:00 +6°C° 0 mm 2 mps 753 mmHg 69%
    19:00 +4°C° 0 mm 2 mps 753 mmHg 74%
    20:00 +3°C° 0 mm 2 mps 753 mmHg 79%
    21:00 +4°C° 0 mm 1 mps 753 mmHg 79%
    22:00 +4°C° 0 mm 1 mps 753 mmHg 78%
    23:00 +3°C° 0 mm 1 mps 753 mmHg 78%

    Tomorrow, 21 September, Saturday

    Time Temperature Precipitation Wind Pressure Humidity
    00:00 +3°C° 0 mm 1 mps 753 mmHg 80%
    01:00 +3°C° 0 mm 1 mps 753 mmHg 81%
    02:00 +3°C° 0 mm 1 mps 753 mmHg 83%
    03:00 +2°C° 0 mm 1 mps 753 mmHg 84%
    04:00 +2°C° 0 mm 1 mps 752 mmHg 85%
    05:00 +1°C° 0 mm 2 mps 752 mmHg 87%
    06:00 +2°C° 0 mm 2 mps 752 mmHg 83%
    07:00 +4°C° 0 mm 1 mps 752 mmHg 80%
    08:00 +5°C° 0 mm 1 mps 752 mmHg 76%
    09:00 +6°C° 0 mm 1 mps 752 mmHg 70%
    10:00 +8°C° 0 mm 1 mps 752 mmHg 63%
    11:00 +9°C° 0 mm 1 mps 752 mmHg 57%
    12:00 +10°C° 0 mm 1 mps 752 mmHg 55%
    13:00 +10°C° 0 mm 1 mps 752 mmHg 53%
    14:00 +10°C° 0 mm 1 mps 752 mmHg 51%
    15:00 +8°C° 0.1 mm 2 mps 752 mmHg 58%
    16:00 +8°C° 0.1 mm 2 mps 752 mmHg 66%
    17:00 +7°C° 0.1 mm 2 mps 752 mmHg 73%
    18:00 +5°C° 0.2 mm 2 mps 752 mmHg 79%
    19:00 +4°C° 0.2 mm 2 mps 752 mmHg 84%
    20:00 +2°C° 0.2 mm 3 mps 752 mmHg 90%
    21:00 +1°C° 0 mm 3 mps 752 mmHg 90%
    22:00 +1°C° 0 mm 3 mps 753 mmHg 91%
    23:00 0°C° 0 mm 3 mps 753 mmHg 91%

    Day after tomorrow, 22 September, Sunday

    Time Temperature Precipitation Wind Pressure Humidity
    00:00 0°C° 0 mm 3 mps 753 mmHg 91%
    01:00 -1°C° 0 mm 3 mps 754 mmHg 92%
    02:00 -2°C° 0 mm 4 mps 755 mmHg 92%
    03:00 -2°C° 0 mm 4 mps 755 mmHg 93%
    04:00 -2°C° 0 mm 4 mps 756 mmHg 94%
    05:00 -2°C° 0 mm 4 mps 756 mmHg 94%
    06:00 -2°C° 0 mm 4 mps 757 mmHg 92%
    07:00 -1°C° 0 mm 4 mps 757 mmHg 91%
    08:00 -1°C° 0 mm 4 mps 757 mmHg 89%
    09:00 0°C° 0 mm 4 mps 758 mmHg 83%
    10:00 +3°C° 0 mm 4 mps 758 mmHg 77%
    11:00 +4°C° 0 mm 4 mps 758 mmHg 71%
    12:00 +5°C° 0 mm 4 mps 759 mmHg 65%
    13:00 +6°C° 0 mm 4 mps 759 mmHg 58%
    14:00 +6°C° 0 mm 4 mps 759 mmHg 52%
    15:00 +6°C° 0 mm 4 mps 759 mmHg 55%
    16:00 +5°C° 0 mm 4 mps 759 mmHg 58%
    17:00 +5°C° 0 mm 3 mps 759 mmHg 60%
    18:00 +4°C° 0 mm 3 mps 759 mmHg 65%
    19:00 +2°C° 0 mm 3 mps 759 mmHg 70%
    20:00 +1°C° 0 mm 3 mps 759 mmHg 75%
    21:00 0°C° 0 mm 3 mps 759 mmHg 76%
    22:00 0°C° 0 mm 3 mps 759 mmHg 77%
    23:00 0°C° 0 mm 3 mps 759 mmHg 78%

    23 September, Monday

    Time Temperature Precipitation Wind Pressure Humidity
    00:00 -1°C° 0 mm 3 mps 760 mmHg 78%
    01:00 -1°C° 0 mm 3 mps 760 mmHg 79%
    02:00 -1°C° 0 mm 3 mps 760 mmHg 79%
    03:00 -1°C° 0 mm 3 mps 760 mmHg 80%
    04:00 -2°C° 0 mm 3 mps 760 mmHg 82%
    05:00 -2°C° 0 mm 3 mps 760 mmHg 83%
    06:00 -1°C° 0 mm 3 mps 760 mmHg 80%
    07:00 0°C° 0 mm 3 mps 760 mmHg 77%
    08:00 0°C° 0 mm 3 mps 760 mmHg 74%
    09:00 +2°C° 0 mm 3 mps 760 mmHg 69%
    10:00 +3°C° 0 mm 4 mps 760 mmHg 64%
    11:00 +4°C° 0 mm 4 mps 760 mmHg 58%
    12:00 +5°C° 0 mm 4 mps 760 mmHg 58%
    13:00 +5°C° 0 mm 4 mps 760 mmHg 57%
    14:00 +5°C° 0 mm 4 mps 760 mmHg 56%
    15:00 +5°C° 0 mm 4 mps 760 mmHg 58%
    16:00 +4°C° 0 mm 4 mps 760 mmHg 60%
    17:00 +4°C° 0 mm 3 mps 760 mmHg 62%
    18:00 +3°C° 0 mm 3 mps 760 mmHg 68%
    19:00 +2°C° 0 mm 3 mps 760 mmHg 73%
    20:00 +1°C° 0 mm 3 mps 760 mmHg 78%
    21:00 0°C° 0 mm 3 mps 760 mmHg 81%
    22:00 -1°C° 0 mm 2 mps 760 mmHg 85%
    23:00 -1°C° 0 mm 2 mps 760 mmHg 88%

    24 September, Tuesday

    Time Temperature Precipitation Wind Pressure Humidity
    00:00 -1°C° 0 mm 2 mps 760 mmHg 90%
    01:00 -2°C° 0 mm 2 mps 760 mmHg 92%
    02:00 -2°C° 0 mm 2 mps 761 mmHg 94%
    03:00 -2°C° 0 mm 2 mps 761 mmHg 94%
    04:00 -2°C° 0 mm 2 mps 760 mmHg 95%
    05:00 -3°C° 0 mm 2 mps 760 mmHg 95%
    06:00 -2°C° 0 mm 2 mps 760 mmHg 91%
    07:00 -1°C° 0 mm 2 mps 760 mmHg 86%
    08:00 +1°C° 0 mm 2 mps 760 mmHg 82%
    09:00 +2°C° 0 mm 2 mps 760 mmHg 74%
    10:00 +2°C° 0 mm 3 mps 761 mmHg 67%
    11:00 +4°C° 0 mm 3 mps 761 mmHg 59%
    12:00 +4°C° 0 mm 3 mps 761 mmHg 58%
    13:00 +4°C° 0 mm 3 mps 760 mmHg 57%
    14:00 +4°C° 0 mm 3 mps 760 mmHg 56%
    15:00 +4°C° 0 mm 3 mps 760 mmHg 59%
    16:00 +4°C° 0 mm 2 mps 760 mmHg 61%
    17:00 +4°C° 0 mm 2 mps 760 mmHg 64%
    18:00 +3°C° 0 mm 2 mps 760 mmHg 67%
    19:00 +2°C° 0 mm 2 mps 760 mmHg 69%
    20:00 +1°C° 0 mm 2 mps 760 mmHg 72%
    21:00 +1°C° 0 mm 2 mps 760 mmHg 73%
    22:00 +1°C° 0 mm 2 mps 760 mmHg 73%
    23:00 -1°C° 0 mm 2 mps 760 mmHg 74%

    25 September, Wednesday

    Time Temperature Precipitation Wind Pressure Humidity
    00:00 +1°C° 0 mm 2 mps 760 mmHg 73%
    01:00 +1°C° 0 mm 2 mps 761 mmHg 72%
    02:00 +1°C° 0 mm 2 mps 761 mmHg 71%
    03:00 +2°C° 0 mm 2 mps 761 mmHg 71%
    04:00 +2°C° 0 mm 2 mps 760 mmHg 70%
    05:00 +2°C° 0 mm 2 mps 760 mmHg 70%
    06:00 +2°C° 0 mm 2 mps 760 mmHg 71%
    07:00 +2°C° 0 mm 2 mps 760 mmHg 73%
    08:00 +2°C° 0 mm 2 mps 760 mmHg 74%
    09:00 +3°C° 0 mm 2 mps 760 mmHg 68%
    10:00 +4°C° 0 mm 2 mps 760 mmHg 63%
    11:00 +5°C° 0 mm 2 mps 761 mmHg 57%
    12:00 +5°C° 0 mm 2 mps 760 mmHg 56%
    13:00 +5°C° 0 mm 2 mps 760 mmHg 55%
    14:00 +6°C° 0 mm 2 mps 760 mmHg 54%
    15:00 +5°C° 0 mm 2 mps 760 mmHg 57%
    16:00 +5°C° 0 mm 2 mps 760 mmHg 61%
    17:00 +4°C° 0 mm 2 mps 760 mmHg 65%
    18:00 +3°C° 0 mm 2 mps 760 mmHg 70%
    19:00 +3°C° 0 mm 1 mps 760 mmHg 74%
    20:00 +1°C° 0 mm 1 mps 760 mmHg 79%
    21:00 +1°C° 0 mm 1 mps 760 mmHg 79%
    22:00 +1°C° 0 mm 1 mps 761 mmHg 78%
    23:00 +1°C° 0 mm 1 mps 761 mmHg 78%
    Show more